STARLINK-38040, 69717

Orbit data source: Space-Track

STARLINK-38040, 69717 is a payload satellite owned by SpaceX/Seattle (US) in SSO that was launched on Sun, 28 Jun 2026 UTC via an FALCON 9 launch vehicle from the Air Force Western Test Range (AFWTR). Payload-class satellites include a variety of spacecraft equipped with specific instruments for various scientific and technological missions. These include communications satellites like Starlink; space stations such as the ISS; scientific satellites like the Hubble; Earth observation satellites from companies like Planet Labs, Umbra, and HawkEye 360; GPS; miniature CubeSats for education and research; and military/defense satellites.

Loading next visibility...
Identifier
69717, 2026-147P
Orbit
SSO
Country
Flag of USUS
Related business
Manufacturer
SpaceX/Seattle
Mission
Operational Commercial Communications
Bus & Motor
STARLINK V2MO, Unknown motor
Mass
575 kg wet, ~530 kg dry
Launch date (UTC)
2026-06-28 (2 months ago)
Launch vehicle
FALCON 9
Launch site
Air Force Western Test Range (AFWTR)
Object type
Payload
Rocket body
Debris
Shape & HBR
Box + 1 Pan, 17.7 m
Radar Cross Section
41.120 m², Large (>1 m²)

Expand to show TLE details & history
Last TLE update: 2 days ago

TLE from 2 days ago
0 STARLINK-38040
1 69717U 26147P   26235.82738138  .00016871  00000-0  52382-3 0  9994
2 69717  97.2843 272.5962 0002837  89.9391 270.2177 15.33437146  9997
Epoch: 2026-08-23T19:51Z
TLE epoch observation values (Epoch: 2026-08-23T19:51:25.751Z)
Latitude
0.00001°
Longitude
2.62105°
Altitude
468.672 km
Speed
7.632 km/s
True Right ascension
18h 10m 23s
True Declination
0° 00' 00"
Sunlit
Object was in full shadow at epoch
Visualization orbit readout
Latitude
Unknown
Longitude
Unknown
Altitude
Unknown
Speed
Unknown
Apparent Right ascension
Unknown
Apparent Declination
Unknown
Sunlit
N/A
Visualization observer readout
Local Sidereal Time
00:12:13
Azimuth
Unknown
Elevation
Unknown
Doppler factor
Unknown
Orbital elements
Apogee altitude
464.45 km
Perigee altitude
460.569 km
Semi-major axis
6,840.646 km
Eccentricity
0.00028
Inclination
97.2843°
RAAN
272.5962°
Arg. of periapsis
89.9391°
True anomaly
270.18519°
Mean anomaly
270.2177°
Eccentric anomaly
270.20145°
Mean motion
3.83617 °/min
Orbital period
93.84 mins
BSTAR
0.00052382
Loading maneuver chart data...
Computing Atmospheric mass density...
Loading historical data...
Loading historical data...
Loading historical data...
Loading historical data...
Loading historical data...
Loading historical data...
Loading historical data...

Documentation

Showing up to 5 results
|